カタログに戻る

STARLINK-37699

運用中通信VLEO
NORAD 100279·PAYLOAD·🇺🇸 United States

打ち上げ Aug 11, 2026 から Cape Canaveral Space Force Station

Loading…

次のパス (今後24時間)

TLE

経年Source: Space-Track

元期: Sep 11, 2026, 14:12 UTC

1 A0279U 26183H   26254.59207931 -.01039919  00000-0 -84032-2 0  9996
2 A0279  53.1593 301.3642 0003060  13.9834 346.1270 15.72672913  4901

AllMySatでSTARLINK-37699をリアルタイム追跡

Download on the App Store